Richmond, VA

4:47 PM EDT on March 30, 2017 (GMT -0400)
Richmond International

Weather History for KRIC - May, 2013

Change the Weather History Date:

Sunday, May 5, 2013

  Actual Average Record
Temperature  
Mean Temperature 54 °F 64 °F  
Max Temperature 63 °F 75 °F 92 °F (1930)
Min Temperature 45 °F 52 °F 35 °F (1931)
Degree Days  
Heating Degree Days 11 4  
Month to date heating degree days 36 20  
Since 1 July heating degree days 3641 3712  
Cooling Degree Days 0 2  
Month to date cooling degree days 0 10  
Year to date cooling degree days 66 52  
Growing Degree Days 4 (Base 50)    
Moisture  
Dew Point 46 °F    
Average Humidity 77    
Maximum Humidity 93    
Minimum Humidity 60    
Precipitation  
Precipitation 0.00 in 0.11 in 1.80 in (1989)
Month to date precipitation T 0.55  
Year to date precipitation 16.38 13.66  
Snow  
Snow 0.00 in 0.00 in 0.00 in (2002)
Month to date snowfall 0.0 0.0  
Since 1 July snowfall 8.6 10.3  
Snow Depth 0.00 in    
Sea Level Pressure  
Sea Level Pressure 30.17 in    
Wind  
Wind Speed 10 mph (NE)    
Max Wind Speed 17 mph    
Max Gust Speed 21 mph    
Visibility 10 miles    
Events      
T = Trace of Precipitation, MM = Missing Value Source: NWS Daily Summary

Daily Weather History Graph

Daily Weather History Graph

Search for Another Location

Airport or City:

Trip Planner

Search our weather history database for the weather conditions in past years. The results will help you decide how hot, cold, wet, or windy it might be!

Date:

Astronomy

May. 05, 2013 Rise Set
Actual Time 6:09 AM EDT 8:03 PM EDT
Civil Twilight 5:40 AM EDT 8:31 PM EDT
Nautical Twilight 5:06 AM EDT 9:06 PM EDT
Astronomical Twilight 4:29 AM EDT 9:43 PM EDT
Moon 3:33 AM EDT (5/5) 4:04 PM EDT (5/5)
Length of Visible Light 14h 50m
Length of Day
13h 53m
Waning Crescent, 18% of the Moon is Illuminated
May 5
Waning Crescent
May 9
New
May 18
First Quarter
May 25
Full
May 31
Last Quarter

Hourly Weather History & Observations

Time (EDT) Temp. Windchill Dew Point Humidity Pressure Visibility Wind Dir Wind Speed Gust Speed Precip Events Conditions
12:54 AM 46.0 °F 42.5 °F 39.9 °F 79% 30.19 in 10.0 mi NE 6.9 mph - N/A   Mostly Cloudy
1:54 AM 45.0 °F 40.6 °F 39.0 °F 80% 30.18 in 10.0 mi NE 8.1 mph - N/A   Mostly Cloudy
2:54 AM 46.0 °F 41.9 °F 39.9 °F 79% 30.18 in 10.0 mi NE 8.1 mph - N/A   Mostly Cloudy
3:54 AM 45.0 °F 40.1 °F 41.0 °F 86% 30.17 in 10.0 mi NNE 9.2 mph - N/A   Mostly Cloudy
4:54 AM 45.0 °F 41.8 °F 41.0 °F 86% 30.17 in 10.0 mi North 5.8 mph - N/A   Overcast
5:54 AM 46.0 °F 42.5 °F 42.1 °F 86% 30.17 in 10.0 mi North 6.9 mph - N/A   Overcast
6:54 AM 46.9 °F - 44.1 °F 90% 30.19 in 10.0 mi North 10.4 mph - N/A   Mostly Cloudy
7:39 AM 50.0 °F - 44.6 °F 82% 30.17 in 10.0 mi NNE 10.4 mph - N/A   Scattered Clouds
7:54 AM 50.0 °F - 44.1 °F 80% 30.18 in 10.0 mi NNE 10.4 mph - N/A   Scattered Clouds
8:27 AM 51.8 °F - 44.6 °F 76% 30.17 in 10.0 mi NE 11.5 mph - N/A   Mostly Cloudy
8:54 AM 52.0 °F - 44.1 °F 74% 30.20 in 10.0 mi NNE 11.5 mph - N/A   Overcast
9:54 AM 53.1 °F - 45.0 °F 74% 30.20 in 10.0 mi NE 10.4 mph 18.4 mph N/A   Overcast
10:54 AM 57.0 °F - 46.0 °F 67% 30.20 in 10.0 mi NE 13.8 mph 18.4 mph N/A   Overcast
11:54 AM 59.0 °F - 46.0 °F 62% 30.19 in 10.0 mi NNE 8.1 mph - N/A   Mostly Cloudy
12:54 PM 61.0 °F - 48.0 °F 62% 30.19 in 10.0 mi NE 10.4 mph - N/A   Mostly Cloudy
1:54 PM 60.8 °F - 48.2 °F 63% 30.16 in 10.0 mi NE 10.4 mph 20.7 mph N/A   Overcast
2:54 PM 63.0 °F - 48.0 °F 58% 30.16 in 10.0 mi ENE 13.8 mph - N/A   Overcast
3:54 PM 63.0 °F - 48.9 °F 60% 30.14 in 10.0 mi East 12.7 mph - N/A   Overcast
4:54 PM 62.1 °F - 48.9 °F 62% 30.14 in 10.0 mi ENE 10.4 mph - N/A   Overcast
5:54 PM 62.1 °F - 48.9 °F 62% 30.14 in 10.0 mi East 9.2 mph - N/A   Overcast
6:54 PM 60.1 °F - 48.9 °F 67% 30.14 in 10.0 mi ENE 11.5 mph - N/A   Overcast
7:54 PM 59.0 °F - 50.0 °F 72% 30.14 in 10.0 mi East 6.9 mph - N/A   Overcast
8:54 PM 57.9 °F - 50.0 °F 75% 30.14 in 10.0 mi ENE 9.2 mph - N/A   Mostly Cloudy
9:54 PM 55.9 °F - 50.0 °F 80% 30.15 in 10.0 mi ENE 10.4 mph - N/A   Mostly Cloudy
10:42 PM 55.4 °F - 50.0 °F 82% 30.14 in 10.0 mi ENE 6.9 mph - N/A   Overcast
10:54 PM 55.9 °F - 50.0 °F 80% 30.16 in 10.0 mi ENE 8.1 mph - N/A   Overcast
11:54 PM 55.0 °F - 51.1 °F 86% 30.14 in 10.0 mi ENE 5.8 mph - N/A   Overcast